Regional Weather Roundup
Issued by NWS

Home | Current Version | Previous Version | Graphics & Text | Print | Product List | Glossary On
Versions: 1 2 3 4 5 6 7 8 9 10 11 12 13 14 15 16 17 18 19 20 21 22 23 24 25 26 27 28 29 30 31 32 33 34 35 36 37 38 39 40 41 42 43 44 45 46 47 48 49 50
000
ASUS43 KMPX 011101
RWRMN
WEATHER ROUNDUP FOR MINNESOTA
NATIONAL WEATHER SERVICE TWIN CITIES/CHANHASSEN MN
600 AM CDT SAT OCT 01 2016


NOTE: "FAIR" INDICATES FEW OR NO CLOUDS BELOW 12,000 FEET WITH NO
SIGNIFICANT WEATHER AND/OR OBSTRUCTIONS TO VISIBILITY. N/A MEANS
CURRENT SKY AND/OR WEATHER CONDITIONS ARE NOT AVAILABLE.

MNZ060>063-068>070-011200-
   Twin Cities Metro

CITY           SKY/WX    TMP DP  RH WIND       PRES   REMARKS
TWIN CITIES    CLEAR     54  51  90 N6        30.17S
ST PAUL        CLEAR     53  50  89 NW5       30.18S
CRYSTAL        CLOUDY    51  49  92 N5        30.17S FOG
BLAINE         MOCLDY    52  52 100 NE5       30.18S FOG
LAKEVILLE      PTCLDY    52  52 100 CALM      30.17S
EDEN PRAIRIE   CLEAR     54  51  90 N5        30.16S
LAKEVILLE      PTCLDY    52  52 100 CALM      30.17S
SOUTH ST PAUL  CLEAR     54  52  93 CALM      30.17S
LAKE ELMO      FAIR      50  50 100 N3        30.18F
$$
MNZ001>005-007-008-013>017-022>024-027-028-011200-
   Northwest Minnesota

CITY           SKY/WX    TMP DP  RH WIND       PRES   REMARKS
BEMIDJI        FOG       48  48 100 SE7       30.22S VSB 1/2
HALLOCK        PTCLDY    55  50  82 SE6       30.16F
ROSEAU         CLOUDY    52  46  82 SE5       30.19F
WARROAD        CLOUDY    50  46  87 SE3       30.21S
THIEF RVR FALL MOCLDY    47  45  93 SE9       30.19S
CROOKSTON      CLOUDY    50  48  93 SE8       30.17F
FOSSTON        PTCLDY    46  43  87 SE6       30.19F
DETROIT LAKES  FOG       48  46  93 SE9       30.21R VSB 1
MOORHEAD       MOCLDY    52  48  87 SE6       30.17S
PARK RAPIDS    FOG       51  48  89 SE5       30.21F VSB 3/4
MAHNOMEN       FAIR      48  46  93 SE7       30.18F
$$
MNZ006-009>011-018-025>026-011200-
   North Central Minnesota

CITY           SKY/WX    TMP DP  RH WIND       PRES   REMARKS
BAUDETTE       CLOUDY    47  45  93 SE8       30.23F
FLAG ISLAND    PTCLDY    55  48  76 SE7       30.21F
INTL FALLS     CLEAR     38  37  97 SE3       30.25S
WASKISH        PTCLDY    43  43 100 E6        30.22F
BIG FORK       FOG       37  36  93 CALM      30.24F VSB 1/2
GRAND RAPIDS   CLOUDY    48  47  96 S3        30.25F FOG
ORR            PTCLDY    36  34  93 CALM      30.23S FOG
COOK           PTCLDY    37  37 100 CALM      30.26R FOG
WALKER         CLOUDY    49  49  99 SE3       30.22F
$$
MNZ012-019>021-037-011200-
   Northeast Minnesota

CITY           SKY/WX    TMP DP  RH WIND       PRES   REMARKS
DULUTH         FOG       52  52 100 E3        30.23S VSB 1/4
ELY            CLOUDY    45  45 100 CALM      30.25S
HIBBING        MOCLDY    37  37 100 CALM      30.24F
EVELETH        CLEAR     41  41  97 CALM      30.25S
DULUTH HARBOR  CLOUDY    54  52  94 E6        30.24F FOG
TWO HARBORS    CLEAR     48  45  87 N3        30.22S
SILVER BAY     CLEAR     45  45 100 CALM      30.22F
GRAND MARAIS     N/A     54  48  80 NE3       30.23F
G MARAIS ARPRT PTCLDY    46  39  76 NE6       30.26F
$$
MNZ029>031-032-039>041-046>048-054>057-064-011200-
   West Central Minnesota

CITY           SKY/WX    TMP DP  RH WIND       PRES   REMARKS
FERGUS FALLS   PTCLDY    52  52 100 E5        30.20S
MORRIS         PTCLDY    46  46 100 E7        30.17F FOG
ALEXANDRIA     FOG       50  50 100 E7        30.21S VSB 1/2
ELBOW LAKE     FAIR      50  50  99 SE9       30.19S
WADENA         FOG       48  48 100 SE8       30.20F VSB 1/2
GLENWOOD       FOG       50  50 100 E7        30.20S VSB 1/4
BENSON         CLEAR     50  46  87 SE3       30.18S
ORTONVILLE     PTCLDY    48  45  87 CALM      30.17S
MADISON        CLEAR     48  46  93 CALM      30.17S
WILLMAR        FAIR      52  50  93 NE6       30.20R FOG
$$
MNZ033>034-036-042>043-049>051-058-059-011200-
   Central Minnesota

CITY           SKY/WX    TMP DP  RH WIND       PRES   REMARKS
ST CLOUD       CLOUDY    53  52  96 CALM      30.20S
SAUK CENTRE    CLOUDY    51  51 100 E6        30.21S FOG
PAYNESVILLE    CLOUDY    52  52 100 NE5       30.20S FOG
AITKIN         CLOUDY    52  46  82 CALM      30.21F FOG
PINE RIVER     CLOUDY    52  52 100 SE3       30.25S
BRAINERD       CLOUDY    50  49  96 NE6       30.22F FOG
STAPLES        CLOUDY    50  50 100 CALM      30.21F FOG
LONG PRAIRIE   LGT SNOW  50  50 100 NE3       30.21S VSB 3/4
LITTLE FALLS   CLOUDY    52  48  87 CALM      30.21F
LITCHFIELD     HVY RAIN  54  52  94 NE5       30.19F VSB 1/4
BUFFALO        CLOUDY    52  50  92 CALM      30.19F
MAPLE LAKE     CLOUDY    53  52  98 N3        30.20S
HUTCHINSON     PTCLDY    53  52  97 N5        30.19S
$$
MNZ037-044-045-052-053-011200-
   East Central Minnesota

CITY           SKY/WX    TMP DP  RH WIND       PRES   REMARKS
PRINCETON        N/A     52  52 100 N3        30.20S
MORA           PTCLDY    48  46  93 CALM      30.22S
CAMBRIDGE      MOCLDY    52  48  87 CALM      30.18S
MOOSE LAKE     CLOUDY    50  48  93 CALM      30.21S FOG
HINCKLEY       FAIR      48  48 100 N3        30.21S
CLOQUET        FOG       52  48  87 E5        30.23S VSB 3/4
MCGREGOR       CLOUDY    50  48  93 NE3       30.23F
$$
MNZ071>073-080-081-089-090-097-098-011200-
   Southwest Minnesota

CITY           SKY/WX    TMP DP  RH WIND       PRES   REMARKS
MONTEVIDEO     CLEAR     45  45 100 CALM      30.19S
GRANITE FALLS  CLEAR     48  47  95 CALM      30.19S FOG
CANBY          CLEAR     45  44  96 CALM      30.18S FOG
MARSHALL       CLEAR     45  43  93 CALM      30.17F
REDWOOD FALLS  PTCLDY    51  49  92 NE3       30.17S
OLIVIA         CLEAR     50  48  93 CALM      30.17S
PIPESTONE      CLOUDY    55  50  82 CALM      30.17R
WINDOM         CLOUDY    55  52  88 CALM      30.16F
WORTHINGTON    CLOUDY    56  53  90 W3        30.17S
JACKSON        CLOUDY    55  52  88 CALM      30.17S
TRACY          CLOUDY    56  53  91 CALM      30.17F
$$
MNZ065>067-074>077-082>085-091>093-011200-
   South Central Minnesota

CITY           SKY/WX    TMP DP  RH WIND       PRES   REMARKS
MANKATO        CLOUDY    55  53  93 N5        30.16S FOG
NEW ULM        CLOUDY    54  52  94 CALM      30.16F
ST JAMES       CLOUDY    55  54  94 CALM      30.17S
FAIRMONT       CLOUDY    57  54  89 CALM      30.16F
GLENCOE        CLEAR     51  51 100 N3        30.17S FOG
FARIBAULT      CLOUDY    55  54  94 CALM      30.16S
OWATONNA       CLOUDY    57  54  88 CALM      30.15F
WASECA         CLOUDY    55  52  88 N3        30.17S
ALBERT LEA     CLOUDY    59  55  88 CALM      30.15S
$$
MNZ078>079-086>088-094>096-011200-
   Southeast Minnesota

CITY           SKY/WX    TMP DP  RH WIND       PRES   REMARKS
ROCHESTER      CLOUDY    58  55  90 N8        30.15S
RED WING       PTCLDY    57  52  82 CALM      30.15S
DODGE CENTER   CLOUDY    57  54  88 CALM      30.15S
WINONA         CLOUDY    61  52  72 CALM      30.14S
AUSTIN         CLOUDY    59  54  82 CALM      30.14S
PRESTON        CLOUDY    56  55  94 N6        30.14S
$$
ABBREVIATIONS USED IN REMARKS
   TC - TEMPERATURES IN CELSIUS
  WCI - WIND CHILL INDEX
   HX - HEAT INDEX
  VSB - VISIBILITY
$$




USA.gov is the U.S. government's official web portal to all federal, state and local government web resources and services.